Location: Newark
(48.5156°N, 1.8989°W)
Time: 17:00:15
(UTC+00:00)

Vanguard 1 Rocket - Pass Details

Date: 21 November 2019
Orbit: 650 x 4226 km, 34.3° (Epoch: 13 December)

Event Time Altitude Azimuth Distance (km) Brightness Sun altitude
Exits shadow 04:21:07 14° 163° (SSE) 1,841 9.1 -29.9°
Drops below altitude 10° 04:23:09 10° 138° (SE) 2,239 9.8 -29.5°
Sets 04:26:57 0° 115° (ESE) 3,502 11.3 -28.9°
